Showing default

COSMOS 90, 1588

Orbit data source: Space-Track

COSMOS 90, 1588 is a payload satellite owned by OKB-10 (CIS) in LEO that was launched on Sat, 18 Sep 1965 UTC via a KOSMOS 65S3 launch vehicle from the Tyuratam Missile And Space Complex (TTMTR). Payload-class satellites include a variety of spacecraft equipped with specific instruments for various scientific and technological missions. These include communications satellites like Starlink; space stations such as the ISS; scientific satellites like the Hubble; Earth observation satellites from companies like Planet Labs, Umbra, and HawkEye 360; GPS; miniature CubeSats for education and research; and military/defense satellites.

Loading next visibility...
Identifier
1588, 1965-073E
Orbit
LEO
Country
Flag of CISCIS
Related business
Manufacturer
OKB-10
Mission
Spacecraft
Bus & Motor
STRELA-1 11F610, Unknown motor
Mass
50 kg wet, 50 kg dry
Launch date (UTC)
1965-09-18 (60 years ago)
Launch vehicle
KOSMOS 65S3
Launch site
Tyuratam Missile And Space Complex (TTMTR)
Object type
Payload
Rocket body
Debris
Shape & HBR
Unknown
Radar Cross Section
Medium (>0.1 m² and <1 m²)

Expand to show TLE details & history
Last TLE update: 9 hours ago

TLE from 9 hours ago
0 COSMOS 90
1 01588U 65073E   25346.90556215 -.00000091  00000-0 -94820-6 0  9997
2 01588  56.0589  40.6609 0155003 194.0127 339.0567 12.34590863715984
Epoch: 2025-12-12T21:44Z
TLE epoch observation values (Epoch: 2025-12-12T21:44:00.569Z)
Latitude
6.23995°
Longitude
168.61892°
Altitude
1,415.845 km
Speed
7.205 km/s
True Right ascension
14h 25m 50s
True Declination
6° 12' 22"
Sunlit
Object was in daylight at epoch
Visualization orbit readout
Latitude
Unknown
Longitude
Unknown
Altitude
Unknown
Speed
Unknown
Apparent Right ascension
Unknown
Apparent Declination
Unknown
Sunlit
N/A
Visualization observer readout
Local Sidereal Time
05:22:33
Azimuth
Unknown
Elevation
Unknown
Doppler factor
Unknown
Orbital elements
Apogee altitude
1,652.011 km
Perigee altitude
1,406.871 km
Semi-major axis
7,907.578 km
Eccentricity
0.0155
Inclination
56.0589°
RAAN
40.6609°
Arg. of periapsis
194.0127°
True anomaly
338.41013°
Mean anomaly
339.0567°
Eccentric anomaly
338.7346°
Mean motion
3.08658 °/min
Orbital period
116.63 mins
BSTAR
-9.482e-7
Loading maneuver chart data...
Computing Atmospheric mass density...
Loading historical data...
Loading historical data...
Loading historical data...
Loading historical data...
Loading historical data...
Loading historical data...
Loading historical data...

Documentation

Showing up to 5 results
|